CDT,Max TemperatureF,Mean TemperatureF,Min TemperatureF,Max Dew PointF,MeanDew PointF,Min DewpointF,Max Humidity, Mean Humidity, Min Humidity, Max Sea Level PressureIn, Mean Sea Level PressureIn, Min Sea Level PressureIn, Max VisibilityMiles, Mean VisibilityMiles, Min VisibilityMiles, Max Wind SpeedMPH, Mean Wind SpeedMPH, Max Gust SpeedMPH,PrecipitationIn, CloudCover, Events, WindDirDegrees
2013-10-1,82,70,57,64,59,54,94,75,48,30.15,30.09,30.05,10,10,8,6,0,,0.00,3,,204
2013-10-2,82,70,57,64,61,54,94,74,48,30.17,30.12,30.06,10,10,3,7,0,,0.00,1,,104
2013-10-3,82,72,62,64,62,55,94,72,42,30.14,30.09,30.05,10,10,1,9,2,,0.00,1,,156
2013-10-4,86,73,60,66,62,55,88,74,45,30.16,30.10,30.07,10,9,5,8,1,,0.00,2,,165
2013-10-5,87,74,60,64,62,57,94,72,43,30.13,30.07,29.99,10,9,4,10,1,,0.00,1,,147
2013-10-6,80,68,57,68,64,52,88,79,58,29.99,29.92,29.84,10,10,5,15,2,23,0.46,5,,196
2013-10-7,71,63,55,54,50,46,88,67,41,30.03,29.97,29.91,10,10,9,14,6,18,0.02,2,,358
2013-10-8,77,64,50,63,53,45,82,67,50,30.11,30.05,30.00,10,10,10,14,7,20,0.00,4,,54
2013-10-9,75,67,59,59,53,46,88,62,43,30.20,30.14,30.10,10,10,4,14,5,17,0.00,6,,86
2013-10-10,78,66,55,61,56,52,88,73,44,30.16,30.09,30.03,10,10,10,6,0,,0.00,2,,273
2013-10-11,80,66,53,57,54,50,94,72,39,30.10,30.04,30.00,10,10,7,10,1,,0.00,1,,332
2013-10-12,80,65,50,59,53,46,88,70,39,30.12,30.08,30.03,10,10,7,10,1,,0.00,0,,341
2013-10-13,82,68,55,59,55,52,88,70,37,30.22,30.16,30.12,10,10,8,10,1,,0.00,1,,47
2013-10-14,78,66,53,63,56,50,94,73,44,30.23,30.16,30.10,10,10,7,10,2,16,0.00,1,,83
2013-10-15,71,64,57,59,56,54,94,78,57,30.15,30.09,30.04,10,10,1,9,2,,0.00,4,,72
2013-10-16,73,65,57,63,59,54,94,81,64,30.07,30.01,29.95,10,10,5,6,1,,0.00,6,,183
2013-10-17,71,63,55,64,60,50,94,81,64,30.00,29.95,29.91,10,9,2,13,4,17,0.15,8,,285
2013-10-18,69,58,48,52,47,45,93,74,46,30.09,30.01,29.96,10,8,1,12,2,,0.00,2,,354
2013-10-19,69,60,50,54,50,45,94,75,53,30.03,29.98,29.94,10,10,8,9,1,,0.00,3,,287
2013-10-20,68,54,39,45,40,36,93,69,30,30.10,30.06,30.02,10,9,3,6,1,,0.00,0,,29
2013-10-21,69,53,37,50,43,34,93,73,37,30.13,30.06,30.02,10,9,0,7,0,,0.00,1,,195
2013-10-22,75,63,51,52,48,43,94,69,31,30.03,29.95,29.88,10,9,5,13,2,,0.00,3,,295
2013-10-23,60,50,39,45,38,32,87,63,34,30.12,30.01,29.89,10,10,10,15,6,25,0.00,0,,302
2013-10-24,64,50,35,43,37,30,93,67,39,30.27,30.18,30.12,10,10,8,12,1,,0.00,4,,341
2013-10-25,55,44,32,36,27,21,81,56,28,30.46,30.37,30.28,10,10,7,14,7,18,0.00,0,,7
2013-10-26,62,45,28,39,31,23,87,64,29,30.34,30.25,30.16,10,10,2,8,1,,0.00,0,,215
2013-10-27,68,54,41,52,44,36,88,71,49,30.17,30.13,30.09,10,9,0,6,1,,0.03,5,,115
2013-10-28,66,58,51,55,53,48,94,83,64,30.27,30.21,30.13,10,6,0,5,0,,0.07,7,,149
2013-10-29,75,63,51,59,54,48,94,78,50,30.32,30.26,30.21,10,7,1,7,1,,0.00,4,,153
2013-10-30,77,65,53,57,54,52,94,74,41,30.29,30.21,30.13,10,8,2,10,1,,0.00,0,,187
2013-10-31,73,65,57,64,59,52,88,77,65,30.13,29.96,29.78,10,10,6,14,3,23,0.11,5,,188